SHIYAN 13 (SY-13)

Satellite information

Favourite Embed

Satellite Type and Status

PAYLOADIN ORBIT

Key statistics

Satellite SHIYAN 13 (SY-13) at a glance.

Uptime

1211

Days in orbit

Revolutions

≈ 14.2

Per day

Orbit

SSO

Sun Synchronous Orbit

Inclination

98.5

Latest

Satellite identification and parameters

Extended collection of information and parameters for SHIYAN 13 (SY-13).

Object identification

Identified? True

Debris? False

Object name: SHIYAN 13 (SY-13)

International designator: 2022-004A

Object number (NORAD): 51102

Object ID (CCSDS): 51102

Country: PEOPLES REPUBLIC OF CHINA (PRC)

Current information (Y/N): Y

RCS size: LARGE

Orbital parameters

Period: 101.571 minutes

Inclination: 98.4895 deg

SMA: 7211.204 km

Apoapsis: 1275.775 km

Periapsis: 390.363 km

RAAN: 160.173 deg

Eccentricy: 0.0613914

Argument of periapsis: 285.9684 deg

Mean anomaly: 67.4718 deg

Mean motion: 14.17722081 rev/day

Mean motion (dot): 0.00001964 rev/day2

B* drag term: 0.0001398 1/REarth

Two-line elements (TLE)

Creation date: May 11, 2025, 2:40 a.m.

Reference frame: TEME

Reference center: EARTH

Epoch: May 10, 2025, 9:07 p.m. UTC

TLE line 0: 0 SHIYAN 13 (SY-13)

TLE line 1: 1 51102U 22004A 25130.88032125 .00001964 00000-0 13980-3 0 9991

TLE line 2: 2 51102 98.4895 160.1730 0613914 285.9684 67.4718 14.17722081170237

Live tracking on map

Real-time ground track for satellite SHIYAN 13 (SY-13).

In-orbit conjunctions

There are no conjunctions computed for SHIYAN 13 (SY-13), at the moment. Check back to stay up to date, as we update our databases every day.

Go to all conjunctions

Associated space launch

Chinese satellite declared for technological demonstration purposes, details TBD.

SHIYAN 13 (SY-13) was lifted into orbit during the mission ‘Long March 2D | Shiyan 13’, on board a Long March 2D space rocket.

The launch took place on Jan. 17, 2022, 2:35 a.m. from Launch Complex 9.

For more information about the launch, click the button.

Launch to space Long March 2D | Shiyan 13
Long March 2D | Shiyan 13

Agency: N/A

Status: Launch Successful

Launch date: Jan. 17, 2022, 2:35 a.m. UTC

Rocket: Long March 2D

Launch pad: Launch Complex 9

Location: Taiyuan Satellite Launch Center, People's Republic of China

...

Latest news about this satellite

News about space launch
China launches Long March 2D with Shiyan-13 to start busy year

China successfully kicked off 2022 with the launch of the classified Shiyan-13 payload from the Taiyuan Satellite Launch Center (TSLC) aboard a Chang Zheng 2D (internationally called the Long March 2D).

News about space launch
First Chinese space mission of 2022 rockets into orbit

China launched a Long March 2D rocket Monday with another classified satellite, deploying the spacecraft into a polar orbit on the first of more than 40 Chinese Long March rocket missions planned in 2022.

News about space launch
China’s first launch of 2022 puts classified Shiyan-13 satellite into orbit

A Long March 2D carried the classified Shiyan-13 test satellite into orbit late Sunday, marking the start of what is planned to be a busy year of launches for China.


Newsletter sign-up

Weekly statistics, charts and insights to help you stay on top of the space industry.